Regional Weather Roundup
Issued by NWS

Home | Current Version | Previous Version | Graphics & Text | Print | Product List | Glossary On
Versions: 1 2 3 4 5 6 7 8 9 10 11 12 13 14 15 16 17 18 19 20 21 22 23 24 25 26 27 28 29 30 31 32 33 34 35 36 37 38 39 40 41 42 43 44 45 46 47 48 49 50
000
ASUS45 KBOU 071310
RWRCO

WEATHER ROUNDUP FOR COLORADO
NATIONAL WEATHER SERVICE DENVER/BOULDER CO
700 AM MDT TUE JUL 07 2015

NOTE: "FAIR" INDICATES FEW OR NO CLOUDS BELOW 12000 FEET WITH NO
SIGNIFICANT WEATHER AND/OR OBSTRUCTIONS TO VISIBILITY.

COZ001>005-013-030-031-071400-
...NORTHWEST COLORADO...

CITY           SKY/WX    TMP DP  RH WIND       PRES   REMARKS
CRAIG          NOT AVBL
HAYDEN         CLOUDY    54  48  82 SE6       30.21S
MEEKER         CLOUDY    58  54  86 CALM      30.20R
MOUNT WERNER   NOT AVBL
STEAMBOAT SPGS CLOUDY    53  51  94 E6        30.23S
WALDEN         CLOUDY    50  46  87 SE3       30.30S
$$

COZ006>008-011-071400-
...WEST CENTRAL VALLEYS...

CITY           SKY/WX    TMP DP  RH WIND       PRES   REMARKS
GRAND JUNCTION CLOUDY    63  56  78 CALM      30.11R
MONTROSE       CLOUDY    63  48  58 SE6       30.18R
EAGLE          PTSUNNY   55  55 100 VRB5      30.26R
RIFLE          LGT RAIN  61  56  83 SE5       30.15R
DELTA          CLOUDY    64  52  64 CALM      30.15R
NUCLA          CLOUDY    59  50  72 CALM      30.23R
$$

COZ017>023-064>068-071400-
...SOUTHWEST COLORADO...

CITY           SKY/WX    TMP DP  RH WIND       PRES   REMARKS
DURANGO        PTSUNNY   57  53  86 CALM      30.25S
CORTEZ         MOCLDY    59  51  75 CALM      30.20R
PAGOSA SPRINGS   N/A     55  54  95 SE3       30.33
TELLURIDE      CLOUDY    56  46  68 CALM      30.38S
WOLF CREEK PAS NOT AVBL
$$

COZ009-010-012-014-032>034-037-058>063-071400-
...CENTRAL COLORADO...

CITY           SKY/WX    TMP DP  RH WIND       PRES   REMARKS
ASPEN          PTSUNNY   53  48  83 CALM      30.28S
BUENA VISTA    CLOUDY    53  51  94 SE5       30.36R
COPPER MTN     NOT AVBL
BERTHOUD PASS  CLOUDY    36  28  75 MISG      30.59R HAZE
COTTONWOOD PAS NOT AVBL
GUNNISON       PTSUNNY   52  45  76 N7        30.33S
KREMMLING      PTSUNNY   54  50  87 CALM      30.29S
LEADVILLE      LGT RAIN  47  47 100 S5        30.43S FOG
MONARCH PASS   FOG       41  41 100 S3        30.66R VSB<1/4
SALIDA         CLOUDY    55  52  87 SE10G16   30.41R
SUNLIGHT       CLOUDY    50  45  81 CALM      30.49R
WILKERSON PASS FOG       43  41  93 SW6       30.55S VSB<1/4
$$

COZ069>075-071400-
...SAN LUIS VALLEY/SANGRE DE CRISTO MOUNTAINS...

CITY           SKY/WX    TMP DP  RH WIND       PRES   REMARKS
ALAMOSA        CLOUDY    55  51  86 E3        30.32R
LA VETA PASS   FOG       43  41  93 MISG      30.48S VSB 1/4
SAGUACHE       NOT AVBL
$$

COZ035-036-038>040-071400-
...NORTHERN COLORADO FRONT RANGE...

CITY           SKY/WX    TMP DP  RH WIND       PRES   REMARKS
DENVER INTL AP CLOUDY    58  51  78 SE9       30.22R HAZE
DMNS CITY PARK   N/A     60  53  79 SW2       30.21R
AURORA         PTSUNNY   58  52  79 S13       30.23R
FRONT RANGE AP PTSUNNY   57  50  77 SE16      30.24R FOG
ERIE MUNI ARPT PTSUNNY   59  58  96 CALM      30.21S FOG
BOULDER MUN AP CLOUDY    59  59 100 CALM      30.21S FOG
CENTENNIAL     PTSUNNY   57  52  83 S15       30.23R HAZE
BROOMFIELD     NOT AVBL
FORT COLLINS   CLOUDY    59  54  82 SE7       30.22F
LONGMONT       CLOUDY    62  58  88 CALM      30.22S FOG
$$

COZ041-046-047-076>085-087-088-071400-
...PIKES PEAK/PALMER DIVIDE AND SOUTHERN FOOTHILLS...

CITY           SKY/WX    TMP DP  RH WIND       PRES   REMARKS
COLO. SPRINGS  CLOUDY    55  52  89 S13       30.31R FOG
A. F. ACADEMY  CLOUDY    54  52  94 S12       30.30S FOG
ELLICOTT       CLOUDY   N/A N/A N/A S13       30.31R FOG
FALCON         CLOUDY    52  51  97 S13       30.34R FOG
FORT CARSON    PTSUNNY   56  55  99 S7        30.29S FOG
LIMON          CLOUDY    53  51  93 SE8       30.28S FOG
MONUMENT HILL  CLOUDY    52  48  87 S12       30.31S FOG
TRINIDAD       CLOUDY    57  53  86 E5        30.27F FOG
$$

COZ042>045-048>051-090-091-071400-
...NORTHEAST COLORADO...

CITY           SKY/WX    TMP DP  RH WIND       PRES   REMARKS
GREELEY ARPT   CLOUDY    61  52  72 SE10      30.21F
AKRON          CLOUDY    58  51  78 S12       30.25R HAZE
BURLINGTON     SUNNY     57  51  80 E5        30.26R HAZE
WRAY           PTSUNNY   55  54  99 CALM      30.25R FOG
STERLING       CLOUDY    59  54  82 SE3         N/A  HAZE
HOLYOKE        SUNNY     59  55  88 S3        30.25R FOG
FORT MORGAN    CLOUDY    60  50  70 SE9       30.24S
$$

COZ086-089-092>099-071400-
...SOUTHEAST COLORADO...

CITY           SKY/WX    TMP DP  RH WIND       PRES   REMARKS
PUEBLO         CLOUDY    62  53  72 E8        30.25R HAZE
LA JUNTA       CLOUDY    61  52  72 E5        30.24R HAZE
LAMAR          PTSUNNY   61  53  75 E7        30.22R HAZE
SPRINGFIELD      N/A     57  52  83 NE8       30.23S
$$



USA.gov is the U.S. government's official web portal to all federal, state and local government web resources and services.